#timestamp,LO_Frequency,Hit,StdDev 
1459767615.7,286047000.6,N
1459767635.5,286046997.8,N
1459767655.3,286047003.9,N
1459767675.2,286047003.1,N
1459767695.0,286047006.0,N
1459767695.9,286047006.0,N
1459767715.7,286047007.8,N
1459767735.6,286047004.8,N
1459767755.4,286047004.8,N
1459767775.2,286047006.5,N
1459767795.1,286047006.8,N
1459767796.0,286047006.8,N
1459767815.8,286047004.1,N
1459767835.6,286047004.4,N
1459767855.5,286046999.9,N
1459767875.3,286047003.7,N
1459767895.1,286047004.3,N
1459767915.9,286047004.2,N
1459767935.7,286047003.8,N
1459767955.5,286047004.0,N
1459767975.4,286047003.0,N
1459767995.2,286047001.5,N
1459768015.0,286047003.7,N
1459768015.9,286047003.7,N
1459768035.7,286047002.5,N
1459768055.6,286047000.5,N
1459768075.4,286046999.2,N
1459768095.2,286046999.3,N
1459768115.1,286047001.0,N
1459768116.0,286047001.0,N
1459768135.8,286047001.7,N
1459768155.6,286047003.9,N
1459768175.5,286046998.2,N
1459768195.3,286046999.2,N
1459768215.1,286046998.5,N
1459768235.9,286046996.7,N
1459768255.7,286047001.9,N
1459768275.5,286046998.3,N
1459768295.4,286046998.4,N
1459768315.2,286046999.2,N
1459768335.0,286046996.9,N
1459768335.9,286046996.9,N
1459768355.8,286047000.5,N
1459768375.6,286046999.2,N
1459768395.4,286046998.6,N
1459768415.2,286047002.4,N
1459768435.1,286047001.3,N
1459768436.0,286047001.3,N
1459768455.8,286047001.7,N
1459768475.6,286047002.8,N
1459768495.5,286047000.2,N
1459768515.3,286047000.4,N
1459768535.1,286047001.5,N
1459768555.9,286047004.2,N
1459768575.7,286047005.4,N
1459768595.5,286047001.4,N
1459768615.4,286047000.1,N
1459768635.2,286047001.8,N
1459768655.0,286047001.1,N
1459768655.9,286047001.1,N
1459768675.8,286047002.7,N
1459768695.6,286047004.2,N
1459768715.4,286047001.6,N
1459768735.3,286047001.8,N
1459768755.1,286046996.5,N
1459768756.0,286046996.5,N
1459768775.8,286046997.7,N
1459768795.6,286046995.7,N
1459768815.5,286046995.6,N
1459768835.3,286046992.3,Y
1459768855.2,286046992.3,P
1459768875.9,286046996.0,N
1459768895.7,286046995.3,N
1459768915.5,286046996.0,N
1459768935.4,286046996.0,N
1459768955.2,286046997.9,N
1459768975.0,286046995.8,N
1459768975.9,286046995.8,N
1459768995.8,286046996.9,N
1459769015.6,286046997.0,N
1459769035.4,286046995.3,N
1459769055.3,286046999.4,N
1459769075.1,286046999.4,N
1459769076.0,286046999.4,N
1459769095.8,286046997.1,N
1459769115.7,286046997.4,N
1459769135.5,286046997.3,N
1459769155.3,286046995.6,N
1459769175.1,286046995.2,N
1459769195.9,286046997.3,N
1459769215.7,286047000.6,N
1459769235.5,286047000.6,N
1459769255.4,286047002.3,N
1459769275.2,286047004.7,N
1459769295.0,286047004.6,N
1459769295.9,286047004.6,N
1459769315.8,286047005.8,N
1459769335.6,286047005.8,N
1459769355.4,286047002.6,N
1459769375.3,286046997.2,N
1459769395.1,286046996.7,N
1459769396.0,286046996.7,N
1459769415.8,286047001.6,N
1459769435.7,286047003.9,N
1459769455.5,286047000.3,N
1459769475.3,286046995.7,N
1459769495.2,286046992.6,N
1459769515.9,286046989.5,N
1459769535.7,286046990.1,N
1459769555.5,286046990.3,N
1459769575.4,286046991.0,N
1459769595.2,286046990.1,N
1459769615.0,286046994.6,N
1459769615.9,286046994.6,N
1459769635.8,286046995.5,N
1459769655.6,286046996.8,N
1459769675.4,286046998.6,N
1459769695.3,286046999.0,N
1459769715.1,286046998.1,N
1459769716.0,286046998.1,N
1459769735.8,286047000.3,N
1459769755.7,286046997.3,N
1459769775.5,286046996.0,N
1459769795.3,286046994.5,N
1459769815.2,286046986.9,N
1459769835.9,286046981.1,Y
1459769855.7,286046982.9,P
1459769875.6,286046985.7,N
1459769895.4,286046987.7,N
1459769915.2,286046989.3,N
1459769935.1,286046994.5,N
1459769936.0,286046994.5,N
1459769955.8,286046997.6,N
1459769975.6,286046997.2,N
1459769995.4,286046998.8,N
1459770015.3,286047002.1,N
1459770035.1,286047001.5,N
1459770055.8,286047005.3,N
1459770075.7,286047005.0,N
1459770095.5,286047001.4,N
1459770115.3,286046998.8,N
1459770135.2,286046996.5,N
1459770155.9,286046994.9,N
1459770175.7,286046998.5,N
1459770195.6,286047000.6,N
1459770215.4,286046997.5,N
1459770235.2,286046990.8,N
1459770255.0,286046990.7,N
1459770256.0,286046990.7,N
1459770275.8,286046998.3,N
1459770295.6,286047000.7,N
1459770315.4,286046998.9,N
1459770335.3,286046999.6,N
1459770355.1,286046998.5,N
1459770375.8,286047003.8,N
1459770395.7,286047006.7,N
1459770415.5,286047008.2,N
1459770435.3,286047007.8,N
1459770455.2,286047001.6,N
1459770475.9,286046995.8,N
1459770495.7,286046995.4,N
1459770515.6,286046997.1,N
1459770535.4,286046998.1,N
1459770555.2,286047003.5,N
1459770575.1,286047003.1,N
1459770576.0,286047003.1,N
1459770595.8,286047004.4,N
1459770615.6,286047002.6,N
1459770635.4,286047002.3,N
1459770655.3,286046998.9,N
1459770675.1,286046998.0,N
1459770695.8,286046994.2,N
1459770715.7,286046998.0,N
1459770735.5,286046995.3,N
1459770755.3,286046999.5,N
1459770775.2,286046998.7,N
1459770795.9,286046999.1,N
1459770815.7,286046998.1,N
1459770835.6,286047001.5,N
1459770855.4,286047003.3,N
1459770875.2,286047003.8,N
1459770895.1,286047001.9,N
1459770896.0,286047001.9,N
1459770915.8,286047003.1,N
1459770935.6,286047001.3,N
1459770955.4,286047002.9,N
1459770975.3,286047006.5,N
1459770995.1,286047005.5,N
1459771015.8,286047004.0,N
1459771035.7,286047004.1,N
1459771055.5,286046999.7,N
1459771075.3,286047003.5,N
1459771095.2,286047004.4,N
1459771115.9,286047004.3,N
1459771135.7,286047003.9,N
1459771155.6,286047003.1,N
1459771175.4,286047002.6,N
1459771195.2,286047001.3,N
